Regional Weather Roundup
Issued by NWS

Home | Current Version | Previous Version | Text Only | Print | Product List | Glossary On
Versions: 1 2 3 4 5 6 7 8 9 10 11 12 13 14 15 16 17 18 19 20 21 22 23 24 25 26 27 28 29 30 31 32 33 34 35 36 37 38 39 40 41 42 43 44 45 46 47 48 49 50
000
ASUS45 KBOU 272107
RWRCO

WEATHER ROUNDUP FOR COLORADO
NATIONAL WEATHER SERVICE DENVER/BOULDER CO
300 PM MDT WED MAY 27 2015

NOTE: "FAIR" INDICATES FEW OR NO CLOUDS BELOW 12000 FEET WITH NO
SIGNIFICANT WEATHER AND/OR OBSTRUCTIONS TO VISIBILITY.

COZ001>005-013-030-031-272200-
...NORTHWEST COLORADO...

CITY           SKY/WX    TMP DP  RH WIND       PRES   REMARKS
CRAIG          LGT RAIN  57  44  62 SW24G30   30.12S
HAYDEN         MOSUNNY   61  37  41 SW17G28   30.14R
MEEKER         TSTM      54  42  64 W7G30     30.14R
MOUNT WERNER   NOT AVBL
STEAMBOAT SPGS MOSUNNY   60  44  55 E6        30.14F
WALDEN         CLOUDY    59  32  36 W10       30.19F
$$

COZ006>008-011-272200-
...WEST CENTRAL VALLEYS...

CITY           SKY/WX    TMP DP  RH WIND       PRES   REMARKS
GRAND JUNCTION MOSUNNY   73  45  36 CALM      30.04F
MONTROSE       PTSUNNY   74  40  29 N9G18     30.08F
EAGLE          PTSUNNY   61  39  44 S12       30.18S
RIFLE          MOSUNNY   72  41  32 W15G22    30.06F
DELTA          PTSUNNY   78  41  26 W15G21    30.06F
NUCLA          PTSUNNY   64  37  36 W21G31    30.17R THUNDER
$$

COZ017>023-064>068-272200-
...SOUTHWEST COLORADO...

CITY           SKY/WX    TMP DP  RH WIND       PRES   REMARKS
DURANGO        PTSUNNY   73  36  25 W16       30.15F
CORTEZ         SUNNY     75  36  24 SW9G21    30.11F
PAGOSA SPRINGS PTSUNNY   67  29  23 W8        30.21F
TELLURIDE      PTSUNNY   59  32  36 W6        30.28F THUNDER
WOLF CREEK PAS NOT AVBL
$$

COZ009-010-012-014-032>034-037-058>063-272200-
...CENTRAL COLORADO...

CITY           SKY/WX    TMP DP  RH WIND       PRES   REMARKS
ASPEN          MOSUNNY   63  38  39 N14       30.18F
BUENA VISTA    PTSUNNY   60  29  30 N6        30.19F
COPPER MTN     CLOUDY    41  30  65 W6        30.42R
BERTHOUD PASS  PTSUNNY   34  28  80 W18G26    30.44F WCI  23
COTTONWOOD PAS PTSUNNY   59  28  31 W5        30.31R
GUNNISON       PTSUNNY   63  34  34 S16G23    30.22R
KREMMLING      PTSUNNY   64  32  29 S15G21    30.17S
LEADVILLE      CLOUDY    52  31  44 NW9       30.29S
MONARCH PASS   PTSUNNY   37  32  81 SW15      30.53R
SALIDA         CLOUDY    54  43  66 SW18G46   30.30R
SUNLIGHT       TSTM      37  36  93 CALM      30.36F
WILKERSON PASS PTSUNNY   54  28  37 SW7       30.40F
$$

COZ069>075-272200-
...SAN LUIS VALLEY/SANGRE DE CRISTO MOUNTAINS...

CITY           SKY/WX    TMP DP  RH WIND       PRES   REMARKS
ALAMOSA        PTSUNNY   69  27  20 SW20G31   30.17F
LA VETA PASS   PTSUNNY  N/A N/A N/A MISG      30.34F
SAGUACHE       HVY RAIN  57  41  54 NW17      30.21S
$$

COZ035-036-038>040-272200-
...NORTHERN COLORADO FRONT RANGE...

CITY           SKY/WX    TMP DP  RH WIND       PRES   REMARKS
DENVER INTL AP MOSUNNY   75  43  31 N9        30.03F
DMNS CITY PARK   N/A     75  40  28 NE8       30.01F
AURORA         PTSUNNY   74  38  27 NE2       30.05F
FRONT RANGE AP PTSUNNY   75  43  31 N6        30.05F
ERIE MUNI ARPT MOSUNNY   75  40  29 E8        30.02F
BOULDER MUN AP MOSUNNY   73  43  33 SE7       30.01F
CENTENNIAL     PTSUNNY   73  39  29 N9        30.05F
BROOMFIELD     PTSUNNY   73  39  29 VRB3      30.05F
FORT COLLINS   MOSUNNY   73  43  33 E6        30.01F
LONGMONT       MOSUNNY   79  41  25 SE6       30.01F
$$

COZ041-046-047-076>085-087-088-272200-
...PIKES PEAK/PALMER DIVIDE AND SOUTHERN FOOTHILLS...

CITY           SKY/WX    TMP DP  RH WIND       PRES   REMARKS
COLO. SPRINGS  PTSUNNY   72  42  34 S14       30.09F
A. F. ACADEMY  PTSUNNY   71  33  24 SW18      30.07F
ELLICOTT       NOT AVBL
FALCON         PTSUNNY   70  35  27 S17G24    30.12F
FORT CARSON    NOT AVBL
LIMON          TSTM      65  42  43 W23G29    30.07R
MONUMENT HILL  PTSUNNY   64  37  36 NW6       30.14S
TRINIDAD       TSTM      63  43  48 MISG      30.09F
$$

COZ042>045-048>051-090-091-272200-
...NORTHEAST COLORADO...

CITY           SKY/WX    TMP DP  RH WIND       PRES   REMARKS
GREELEY ARPT   SUNNY     77  43  29 SE3       30.01F
AKRON          PTSUNNY   71  48  43 S16       30.02S
BURLINGTON     MOSUNNY   79  51  37 S21G29    30.00F
WRAY           LGT RAIN  77  53  43 S16       29.98F
STERLING       MOSUNNY   77  46  33 W7        29.97F
HOLYOKE        PTSUNNY   68  57  68 SE10G22   29.99F
FORT MORGAN    MOSUNNY   74  41  30 CALM      30.02S
$$

COZ086-089-092>099-272200-
...SOUTHEAST COLORADO...

CITY           SKY/WX    TMP DP  RH WIND       PRES   REMARKS
PUEBLO         MOSUNNY   78  47  33 SE8       30.00F
LA JUNTA       SUNNY     81  48  31 E13       29.98F
LAMAR          MOSUNNY   81  50  33 SW8       29.96F
SPRINGFIELD      N/A     78  49  35 SE12      30.00F
$$



USA.gov is the U.S. government's official web portal to all federal, state and local government web resources and services.